NOAA-19
1 33591U 09005A 10336.47991980 .00000020 00000-0 34991-4 0 7670
2 33591 098.8063 275.1545 0014269 169.5125 190.6347 14.11106550 93643
HUBBLE
1 20580U 90037B 10335.13645736 .00000538 00000-0 28202-4 0 6824
2 20580 028.4696 229.8797 0003774 174.9798 185.0771 15.01107642929862
ISS
1 25544U 98067A 10337.03168981 .00018970 00000-0 14135-3 0 3839
2 25544 051.6469 086.4412 0007476 297.7478 038.0871 15.72785889690020
CO-58
1 28895U 05043F 10335.62349445 .00000285 00000-0 68553-4 0 7414
2 28895 097.9896 214.3242 0018959 118.9213 241.3923 14.59973295271410
FALCON
1 30776U 07006E 10336.78294639 .00000872 00000-0 64903-4 0 9709
2 30776 035.4320 100.4904 0000759 283.7945 076.2687 15.03983971205457
MAST
1 31126U 07012K 10335.62819763 .00000102 00000-0 33186-4 0 00266
2 31126 097.9187 008.8060 0095564 065.7670 295.3476 14.53648873192386
CAPE1
1 31130U 07012P 10335.56538944 .00000255 00000-0 68749-4 0 445
2 31130 097.9204 005.8359 0103626 075.2336 286.0391 14.52259200191959
COMPASS
1 32787U 08021E 10334.19851924 .00000251 00000-0 38153-4 0 08449
2 32787 097.8759 036.5064 0016806 104.3909 255.9206 14.82059765140084
AAUSAT2
1 32788U 08021F 10336.75026251 .00000836 00000-0 11115-3 0 8347
2 32788 097.8761 039.1854 0017241 099.9147 260.4069 14.82221652140478
DO-64
1 32789U 08021G 10335.72511673 .00000512 00000-0 70248-4 0 08525
2 32789 097.8845 038.8579 0016666 099.2670 261.0418 14.82464611140329
CO-66
1 32791U 08021J 10334.17857963 .00000031 00000-0 10600-4 0 08354
2 32791 097.8771 036.4768 0017270 103.2554 257.0563 14.81814114140033
RS-30
1 32953U 08025A 10336.83481866 .00000010 00000-0 00000 0 0 2638
2 32953 082.5004 284.8030 0020113 092.9215 267.4172 12.43009515114693
TACSAT-3
1 35001U 09028A 10335.96885059 .00006860 00000-0 15143-3 0 04532
2 35001 040.4562 284.9067 0021737 184.7455 175.3144 15.43860657086556
PHARMSAT
1 35002U 09028B 10335.94072729 .00005956 00000-0 13067-3 0 04272
2 35002 040.4706 282.6301 0024171 187.4758 172.5700 15.44156336086576
HAWKSAT1
1 35003U 09028C 10336.89229098 .00015317 00000-0 27048-3 0 4525
2 35003 040.4605 265.2970 0023559 218.8333 141.0748 15.49654360 86850
CP6
1 35004U 09028D 10336.88594934 .00019161 00000-0 31591-3 0 4539
2 35004 040.4625 262.5510 0023670 223.9694 135.9144 15.51465447 86877
AEROCUB3
1 35005U 09028E 10336.86807023 .00217953 00000-0 12029-2 0 5448
2 35005 040.4630 242.7671 0025280 248.2275 111.5583 15.77717362 87092
METEOR-M
1 35865U 09049A 10336.67427407 .00000176 00000-0 10000-3 0 8884
2 35865 098.7363 029.0715 0001579 238.5381 121.5610 14.21833398 62669
RS-38
1 35869U 09049E 10336.69752249 .00000177 00000-0 10000-3 0 9001
2 35869 098.7351 029.1354 0003825 237.1921 122.8849 14.21995008 62677
